Weather History for KOPM - April, 2013

Change the Weather History Date:

Sunday, April 21, 2013

  Actual Average Record
Temperature  
Mean Temperature 70 °F -  
Max Temperature 71 °F - - ()
Min Temperature 68 °F - - ()
Cooling Degree Days 4    
Growing Degree Days 20 (Base 50)    
Moisture  
Dew Point 61 °F    
Average Humidity 74    
Maximum Humidity 88    
Minimum Humidity 64    
Precipitation  
Precipitation 0.00 in - - ()
Sea Level Pressure  
Sea Level Pressure 30.05 in    
Wind  
Wind Speed 13 mph (ENE)    
Max Wind Speed 18 mph    
Max Gust Speed -    
Visibility 9 miles    
Events      
T = Trace of Precipitation, MM = Missing Value Source: NWS Daily Summary

Daily Weather History Graph

Daily Weather History Graph

Search for Another Location

Airport or City:

Trip Planner

Search our weather history database for the weather conditions in past years. The results will help you decide how hot, cold, wet, or windy it might be!

Date:

Astronomy

Apr. 21, 2013 Rise Set
Actual Time 6:57 AM CDT 7:55 PM CDT
Civil Twilight 6:33 AM CDT 8:19 PM CDT
Nautical Twilight 6:05 AM CDT 8:47 PM CDT
Astronomical Twilight 5:36 AM CDT 9:16 PM CDT
Moon 4:03 PM CDT (4/21) 3:56 AM CDT (4/21)
Length of Visible Light 13h 45m
Length of Day
12h 57m
Waxing Gibbous, 80% of the Moon is Illuminated
Apr 21
Waxing Gibbous
Apr 25
Full
May 2
Last Quarter
May 9
New
May 17
First Quarter

Hourly Weather History & Observations

Time (CDT) Temp. Dew Point Humidity Pressure Visibility Wind Dir Wind Speed Gust Speed Precip Events Conditions
12:15 AM 68.0 °F 55.4 °F 64% 30.09 in 10.0 mi East 15.0 mph - N/A   Unknown
12:35 AM 68.0 °F 55.4 °F 64% 30.08 in 10.0 mi East 16.1 mph - N/A   Unknown
12:55 AM 68.0 °F 55.4 °F 64% 30.06 in 10.0 mi ESE 18.4 mph - N/A   Unknown
1:15 AM 68.0 °F 55.4 °F 64% 30.06 in 10.0 mi ESE 17.3 mph - N/A   Unknown
1:35 AM 68.0 °F 55.4 °F 64% 30.05 in 10.0 mi ESE 17.3 mph - N/A   Unknown
1:55 AM 68.0 °F 57.2 °F 68% 30.04 in 10.0 mi ESE 18.4 mph - N/A   Unknown
2:15 AM 68.0 °F 55.4 °F 64% 30.04 in 10.0 mi ESE 16.1 mph - N/A   Unknown
2:35 AM 68.0 °F 55.4 °F 64% 30.03 in 10.0 mi East 16.1 mph - N/A   Unknown
2:55 AM 68.0 °F 55.4 °F 64% 30.03 in 10.0 mi East 17.3 mph - N/A   Unknown
3:15 AM 68.0 °F 57.2 °F 68% 30.03 in 10.0 mi ESE 16.1 mph - N/A   Unknown
3:35 AM 68.0 °F 57.2 °F 68% 30.02 in - ESE 18.4 mph - N/A   Unknown
3:55 AM 68.0 °F 57.2 °F 68% 30.02 in 10.0 mi ESE 18.4 mph - N/A   Unknown
4:15 AM 68.0 °F 57.2 °F 68% 30.02 in 10.0 mi ESE 16.1 mph - N/A   Unknown
4:30 AM 68.0 °F 57.2 °F 68% 30.02 in 10.0 mi ESE 16.1 mph - N/A   Unknown
5:30 AM 68.0 °F 57.2 °F 68% 30.03 in - SE 13.8 mph - N/A   Unknown
6:15 AM 68.0 °F 57.2 °F 68% 30.03 in - SE 11.5 mph - N/A   Unknown
6:35 AM 68.0 °F 59.0 °F 73% 30.03 in 10.0 mi SE 11.5 mph - N/A   Unknown
6:55 AM 68.0 °F 59.0 °F 73% 30.03 in 9.0 mi SE 13.8 mph - N/A   Unknown
7:15 AM 68.0 °F 59.0 °F 73% 30.05 in 9.0 mi SE 10.4 mph - N/A   Partly Cloudy
7:35 AM 68.0 °F 59.0 °F 73% 30.05 in 10.0 mi SE 6.9 mph - N/A   Clear
7:55 AM 68.0 °F 59.0 °F 73% 30.06 in 9.0 mi SE 5.8 mph - N/A   Clear
8:15 AM 69.8 °F 60.8 °F 73% 30.07 in 9.0 mi SE 3.5 mph - N/A   Partly Cloudy
8:35 AM 69.8 °F 60.8 °F 73% 30.07 in 9.0 mi Calm Calm - N/A   Clear
8:55 AM 69.8 °F 60.8 °F 73% 30.08 in 9.0 mi Calm Calm - N/A   Clear
9:15 AM 69.8 °F 60.8 °F 73% 30.09 in 8.0 mi Calm Calm - N/A   Clear
9:35 AM 69.8 °F 60.8 °F 73% 30.09 in 9.0 mi Calm Calm - N/A   Clear
9:55 AM 69.8 °F 60.8 °F 73% 30.10 in 10.0 mi NE 4.6 mph - N/A   Clear
10:15 AM 69.8 °F 60.8 °F 73% 30.10 in 9.0 mi Calm Calm - N/A   Unknown
10:35 AM 69.8 °F 60.8 °F 73% 30.10 in 9.0 mi Calm Calm - N/A   Clear
10:55 AM 69.8 °F 62.6 °F 78% 30.11 in 9.0 mi NNE 3.5 mph - N/A   Clear
11:15 AM 71.6 °F 60.8 °F 69% 30.10 in 9.0 mi NNE 3.5 mph - N/A   Clear
11:35 AM 69.8 °F 60.8 °F 73% 30.10 in 9.0 mi Variable 4.6 mph - N/A   Clear
11:55 AM 71.6 °F 60.8 °F 69% 30.10 in 9.0 mi NNE 4.6 mph - N/A   Clear
12:15 PM 71.6 °F 60.8 °F 69% 30.10 in - NE 6.9 mph - N/A   Clear
12:35 PM 69.8 °F 60.8 °F 73% 30.09 in 9.0 mi NE 5.8 mph - N/A   Clear
12:55 PM 69.8 °F 60.8 °F 73% 30.08 in 10.0 mi NE 6.9 mph - N/A   Clear
1:15 PM 71.6 °F 60.8 °F 69% 30.07 in 9.0 mi NE 8.1 mph - N/A   Clear
1:35 PM 71.6 °F 60.8 °F 69% 30.07 in 10.0 mi NE 8.1 mph - N/A   Clear
1:55 PM 71.6 °F 60.8 °F 69% 30.06 in 9.0 mi NE 10.4 mph - N/A   Clear
2:15 PM 71.6 °F 60.8 °F 69% 30.06 in 9.0 mi NE 10.4 mph - N/A   Clear
2:35 PM 71.6 °F 60.8 °F 69% 30.05 in 9.0 mi NE 10.4 mph - N/A   Clear
2:55 PM 71.6 °F 60.8 °F 69% 30.05 in 9.0 mi NE 11.5 mph - N/A   Clear
3:15 PM 71.6 °F 60.8 °F 69% 30.04 in 9.0 mi NE 11.5 mph - N/A   Clear
3:35 PM 71.6 °F 60.8 °F 69% 30.03 in 9.0 mi NE 12.7 mph - N/A   Clear
3:55 PM 71.6 °F 60.8 °F 69% 30.03 in 8.0 mi NE 12.7 mph - N/A   Clear
4:15 PM 71.6 °F 60.8 °F 69% 30.02 in 9.0 mi NE 13.8 mph - N/A   Clear
4:35 PM 71.6 °F 62.6 °F 73% 30.02 in 9.0 mi NE 13.8 mph - N/A   Clear
4:50 PM 71.6 °F 62.6 °F 73% 30.01 in 9.0 mi NE 12.7 mph - N/A   Clear
5:35 PM 71.6 °F 62.6 °F 73% 30.01 in 8.0 mi NE 13.8 mph - N/A   Unknown
5:55 PM 71.6 °F 62.6 °F 73% 30.01 in 8.0 mi NE 13.8 mph - N/A   Clear
6:15 PM 71.6 °F 62.6 °F 73% 30.01 in 8.0 mi ENE 13.8 mph - N/A   Clear
6:35 PM 71.6 °F 62.6 °F 73% 30.01 in 8.0 mi NE 12.7 mph - N/A   Clear
6:55 PM 71.6 °F 64.4 °F 78% 30.01 in 8.0 mi NE 12.7 mph - N/A   Clear
7:15 PM 71.6 °F 64.4 °F 78% 30.02 in 9.0 mi NE 11.5 mph - N/A   Clear
7:35 PM 69.8 °F 64.4 °F 83% 30.02 in 8.0 mi NE 11.5 mph - N/A   Clear
7:55 PM 69.8 °F 64.4 °F 83% 30.03 in 7.0 mi NE 11.5 mph - N/A   Clear
8:15 PM 69.8 °F 66.2 °F 88% 30.03 in 8.0 mi NE 12.7 mph - N/A   Clear
8:35 PM 69.8 °F 66.2 °F 88% 30.03 in 8.0 mi NE 15.0 mph - N/A   Clear
8:55 PM 69.8 °F 66.2 °F 88% 30.04 in 8.0 mi NE 15.0 mph - N/A   Clear
9:15 PM 69.8 °F 66.2 °F 88% 30.05 in 8.0 mi NE 13.8 mph - N/A   Clear
9:35 PM 69.8 °F 66.2 °F 88% 30.06 in 8.0 mi ENE 15.0 mph - N/A   Clear
9:55 PM 69.8 °F 66.2 °F 88% 30.06 in 7.0 mi ENE 15.0 mph - N/A   Clear
10:15 PM 69.8 °F 66.2 °F 88% 30.07 in 8.0 mi ENE 15.0 mph - N/A   Unknown
10:35 PM 69.8 °F 66.2 °F 88% 30.07 in 7.0 mi ENE 15.0 mph - N/A   Unknown
10:55 PM 69.8 °F 66.2 °F 88% 30.07 in 7.0 mi ENE 15.0 mph - N/A   Unknown
11:15 PM 69.8 °F 66.2 °F 88% 30.07 in 7.0 mi ENE 15.0 mph - N/A   Clear
11:35 PM 69.8 °F 66.2 °F 88% 30.07 in 7.0 mi ENE 15.0 mph - N/A   Clear
11:55 PM 69.8 °F 66.2 °F 88% 30.07 in 7.0 mi ENE 15.0 mph - N/A   Clear